{"data":{"norad_id":59323,"epoch":"2026-09-21T00:27:29.967840Z","epoch_age_seconds":117412,"freshness":"FRESH","line1":"1 59323U 24057D   26264.01909685 -.00000096  00000+0  60247-5 0  9997","line2":"2 59323  43.0007 171.6180 0001234 269.8964  90.1746 15.27577822139620","mean_motion":15.27577822,"eccentricity":0.0001234,"inclination_deg":43.0007,"raan_deg":171.618,"arg_perigee_deg":269.8964,"mean_anomaly_deg":90.1746,"bstar":6.0247e-6,"rev_number":13962,"period_min":94.266883117919,"perigee_km":482.2089465939,"apogee_km":483.90228893197,"semimajor_km":6861.1926177629,"source":"CELESTRAK","updated_at":"2026-09-22T09:00:48.898297Z"}}